This is the latest recevied weather packets stored in our database for station/object WC4PEM-1. If no packets are shown the sender has not sent any weather packets the latest 1 day(s).
| Time | Temp. | Humidity | Pressure | Rain* | Wind** | Luminosity | Snow |
|---|---|---|---|---|---|---|---|
| 1778029703 | 24.44° C | 60% | 1014.4 hPa | 0 mm | - | 0 W/m² | - |
| 1778029403 | 24.44° C | 60% | 1014.4 hPa | 0 mm | - | 0 W/m² | - |
| 1778028803 | 24.44° C | 60% | 1014.2 hPa | 0 mm | - | 0 W/m² | - |
| 1778028503 | 25° C | 60% | 1014.1 hPa | 0 mm | - | 0 W/m² | - |
| 1778028203 | 25° C | 59% | 1014 hPa | 0 mm | - | 0 W/m² | - |
| 1778027903 | 25° C | 59% | 1014 hPa | 0 mm | - | 0 W/m² | - |
| 1778027603 | 25° C | 59% | 1014 hPa | 0 mm | - | 0 W/m² | - |
| 1778027303 | 25° C | 59% | 1013.9 hPa | 0 mm | - | 0 W/m² | - |
| 1778027003 | 25° C | 58% | 1013.8 hPa | 0 mm | - | 0 W/m² | - |
| 1778026703 | 25.56° C | 58% | 1013.8 hPa | 0 mm | - | 0 W/m² | - |
| 1778026403 | 25.56° C | 58% | 1013.8 hPa | 0 mm | - | 0 W/m² | - |
| 1778026103 | 25.56° C | 58% | 1013.7 hPa | 0 mm | - | 0 W/m² | - |
| 1778025503 | 26.11° C | 58% | 1013.6 hPa | 0 mm | - | 5 W/m² | - |
| 1778025203 | 26.11° C | 58% | 1013.5 hPa | 0 mm | - | 7 W/m² | - |
| 1778024603 | 26.67° C | 57% | 1013.4 hPa | 0 mm | - | 16 W/m² | - |
| 1778024003 | 27.22° C | 55% | 1013.3 hPa | 0 mm | - | 26 W/m² | - |
| 1778023703 | 27.78° C | 54% | 1013.2 hPa | 0 mm | - | 33 W/m² | - |
| 1778023104 | 27.78° C | 53% | 1013.3 hPa | 0 mm | - | 46 W/m² | - |
| 1778022803 | 27.78° C | 54% | 1013.2 hPa | 0 mm | - | 54 W/m² | - |
| 1778021603 | 28.89° C | 50% | 1013.2 hPa | 0 mm | - | 63 W/m² | - |
| 1778021303 | 28.89° C | 50% | 1013.3 hPa | 0 mm | - | 67 W/m² | - |
| 1778019504 | 29.44° C | 47% | 1013.1 hPa | 0 mm | - | 70 W/m² | - |
| 1778018161 | 29.44° C | 49% | 1013.1 hPa | 0 mm | - | 102 W/m² | - |
| 1778016504 | 29.44° C | 44% | 1013 hPa | 0 mm | - | 142 W/m² | - |
| 1778016017 | 29.44° C | 44% | 1013.1 hPa | 0 mm | - | 188 W/m² | - |
* Rain latest hour (hover to see other rain measurements)
** Current wind speed in m/s (hover to see current wind gust speed)